This is the latest recevied weather packets stored in our database for station/object KD8FRE. If no packets are shown the sender has not sent any weather packets the latest 10 day(s).
| Time | Temp. | Humidity | Pressure | Rain* | Wind** | Luminosity | Snow |
|---|---|---|---|---|---|---|---|
| 1777441124 | 10.56° C | 80% | 1013.6 hPa | 0 mm | - | 0 W/m² | - |
| 1777440821 | 11.11° C | 80% | 1013.7 hPa | 0 mm | - | 0 W/m² | - |
| 1777440517 | 11.11° C | 80% | 1013.8 hPa | 0 mm | - | 0 W/m² | - |
| 1777440213 | 11.11° C | 80% | 1014 hPa | 0 mm | - | 0 W/m² | - |
| 1777439909 | 10.56° C | 80% | 1013.9 hPa | 0 mm | - | 0 W/m² | - |
| 1777439606 | 10.56° C | 82% | 1014 hPa | 0 mm | - | 0 W/m² | - |
| 1777439301 | 10.56° C | 83% | 1013.9 hPa | 0 mm | - | 0 W/m² | - |
| 1777438996 | 10.56° C | 83% | 1014 hPa | 0 mm | - | 0 W/m² | - |
| 1777438695 | 10° C | 85% | 1013.7 hPa | 0 mm | - | 0 W/m² | - |
| 1777438390 | 10° C | 87% | 1013.9 hPa | 0 mm | - | 0 W/m² | - |
| 1777438086 | 9.44° C | 87% | 1013.8 hPa | 0 mm | - | 0 W/m² | - |
| 1777437783 | 9.44° C | 87% | 1013.6 hPa | 0 mm | - | 0 W/m² | - |
| 1777437479 | 9.44° C | 88% | 1013.8 hPa | 0 mm | - | 0 W/m² | - |
| 1777437176 | 10° C | 88% | 1013.6 hPa | 0 mm | - | 0 W/m² | - |
| 1777436872 | 10° C | 86% | 1013.5 hPa | 0 mm | - | 0 W/m² | - |
| 1777436570 | 10.56° C | 84% | 1013.8 hPa | 0 mm | - | 0 W/m² | - |
| 1777436265 | 10.56° C | 83% | 1013.6 hPa | 0 mm | - | 0 W/m² | - |
| 1777435658 | 10° C | 86% | 1014.1 hPa | 0 mm | - | 0 W/m² | - |
| 1777435355 | 10° C | 87% | 1013.9 hPa | 0 mm | - | 0 W/m² | - |
| 1777435053 | 10° C | 89% | 1013.9 hPa | 0 mm | - | 0 W/m² | - |
| 1777434750 | 9.44° C | 89% | 1014.3 hPa | 0 mm | - | 0 W/m² | - |
| 1777434443 | 10° C | 88% | 1014.3 hPa | 0 mm | - | 0 W/m² | - |
| 1777433838 | 10° C | 88% | 1014.6 hPa | 0 mm | - | 0 W/m² | - |
| 1777432632 | 10.56° C | 85% | 1014.9 hPa | 0 mm | - | 0 W/m² | - |
| 1777432329 | 10.56° C | 82% | 1014.8 hPa | 0 mm | - | 0 W/m² | - |
* Rain latest hour (hover to see other rain measurements)
** Current wind speed in m/s (hover to see current wind gust speed)